Location: Bruderhein
(53.8035°N, 112.9265°W)
Time: 20:15:45
(UTC+00:00)

Max Valier Satellite - Pass Details

Date: 01 April 2023
Orbit: 445 x 458 km, 97.2° (Epoch: 31 May)

Event Time Altitude Azimuth Distance (km) Brightness Sun altitude
Rises 03:51:25 0° 206° (SSW) 2,440 ? -15.4°
Reaches altitude 10° 03:54:01 10° 229° (SW) 1,578 ? -15.8°
Maximum altitude 03:56:13 16° 270° (W) 1,251 ? -16.0°
Drops below altitude 10° 03:58:28 10° 311° (NW) 1,596 ? -16.3°
Sets 04:01:06 0° 333° (NNW) 2,482 ? -16.7°
